Location: Coupvray
(48.8929°N, 2.7967°E)
Time: 23:47:38
(UTC+00:00)

Cosmos 407 Rocket - Pass Details

Date: 14 July 2020
Orbit: 743 x 786 km, 74.0° (Epoch: 03 August)

Event Time Altitude Azimuth Distance (km) Brightness Sun altitude
Exits shadow 02:35:25 13° 238° (WSW) 2,160 5.2 -10.9°
Maximum altitude 02:39:49 37° 303° (WNW) 1,202 4.5 -10.5°
Drops below altitude 10° 02:44:48 10° 11° (N) 2,357 7.1 -10.0°
Sets 02:47:23 0° 19° (NNE) 3,287 8.3 -9.7°
